Location: Jetmore
(38.0845°N, 99.8935°W)
Time: 20:56:40
(UTC+00:00)

S3M - Pass Details

Date: 29 October 2020
Orbit: 950 x 1003 km, 83.0° (Epoch: 30 November)

Event Time Altitude Azimuth Distance (km) Brightness Sun altitude
Rises 12:26:21 0° 352° (N) 3,698 6.8 -7.8°
Reaches altitude 10° 12:28:51 10° 352° (N) 2,753 6.2 -7.3°
Maximum altitude 12:35:12 84° 264° (W) 1,005 4.1 -6.1°
Drops below altitude 10° 12:41:33 10° 178° (S) 2,762 6.6 -4.9°
Sets 12:44:04 0° 177° (S) 3,711 7.3 -4.4°
